Regional Weather Roundup
Issued by NWS Columbia, SC

Home | Current Version | Previous Version | Text Only | Print | Product List | Glossary On
Versions: 1 2 3 4 5 6 7 8 9 10 11 12 13 14 15 16 17 18 19 20 21 22 23 24 25 26 27 28 29 30 31 32 33 34 35 36 37 38 39 40 41 42 43 44 45 46 47 48 49 50
000
ASUS42 KCAE 300910
RWRCAE
REGIONAL WEATHER ROUNDUP
NATIONAL WEATHER SERVICE COLUMBIA SC
500 AM EDT SAT MAY 30 2015

NOTE: "FAIR" INDICATES FEW OR NO CLOUDS BELOW 12,000 FEET WITH NO
SIGNIFICANT WEATHER AND/OR OBSTRUCTIONS TO VISIBILITY.

NOT ALL STATIONS ARE QUALITY CONTROLLED BY THE NATIONAL
WEATHER SERVICE. USE DATA WITH CAUTION...ESPECIALLY
DEWPOINT OBSERVATIONS.

SCZ001>056-GAZ040-063>065-077-301000-
...UPSTATE SOUTH CAROLINA...

CITY           SKY/WX    TMP DP  RH WIND       PRES   REMARKS
ANDERSON       PTCLDY    64  62  93 CALM      30.17S
LIBERTY        SUNNY    N/A N/A N/A CALM      30.18S
SPARTANBURG    CLEAR    N/A N/A N/A CALM      30.18S
CLEMSON        CLEAR     67  62  84 CALM      30.18S
GREENVILLE     CLEAR     67  61  81 CALM      30.19R
GREENWOOD      CLEAR     63  61  93 CALM      30.18S
GREER          CLEAR     64  62  93 CALM      30.17S
ROCK HILL      CLEAR     62  61  96 CALM      30.19R FOG
CHESTER        SUNNY     64  63  94 CALM      30.19R
LAURENS        SUNNY     66  66 100 CALM      30.17S


...CENTRAL SOUTH CAROLINA...

CITY           SKY/WX    TMP DP  RH WIND       PRES   REMARKS
COLUMBIA APT   PTCLDY    67  62  84 CALM      30.16R
COLUMBIA OWENS CLEAR     68  64  87 CALM      30.17R
DARLINGTON     CLEAR     66  61  82 CALM      30.18S
FLORENCE       PTCLDY    66  65  96 NE3       30.17R
MCENTIRE ANGB  FOG       63  63 100 N2        30.16S VSB 1
ORANGEBURG     CLEAR     67  64  90 CALM      30.16R
SUMTER SHAW    CLEAR     64  63  95 NE3       30.15R
AIKEN          FAIR      63  61  94 CALM      30.19S
BARNWELL       FAIR      64  64 100 CALM      30.16S
MANNING        CLOUDY    63  61  94 CALM      30.16R FOG
CAMDEN         FAIR      64  64 100 CALM      30.18R
LANCASTER      LGT RAIN  64  64 100 MISG      30.18S VSB 1/2
WINNSBORO      SUNNY     63  63 100 CALM      30.18R


...EASTERN AND COASTAL SOUTH CAROLINA...

CITY           SKY/WX    TMP DP  RH WIND       PRES   REMARKS
MYRTLE BEACH   CLEAR     73  64  73 SE8       30.17S
N MYRTLE BCH   PTCLDY    75  67  76 SE5       30.15S
CONWAY         FAIR      63  63 100 CALM      30.16S
MARION         FAIR      66  66 100 CALM      30.17R
HARTSVILLE     FAIR      64  64 100 CALM      30.17R
FLORENCE       PTCLDY    66  65  96 NE3       30.17R
DARLINGTON     CLEAR     66  61  82 CALM      30.18S
CHARLESTON APT PTCLDY    67  66  97 NE3       30.14R
MOUNT PLEASANT FAIR      66  66 100 CALM      30.14R FOG
WALTERBORO     MOSUNNY   63  63 100 CALM      30.15S FOG
BEAUFORT       CLEAR     69  68  96 N6        30.13S


...EASTERN GEORGIA...

CITY           SKY/WX    TMP DP  RH WIND       PRES   REMARKS
AUGUSTA BUSH F FOG       64  63  96 CALM      30.15R VSB 1/2
AUGUSTA DANIEL CLEAR     71  65  81 E5        30.16S
THOMSON        CLEAR     65  65 100 CALM      30.20R
WASHINGTON     FAIR      66  66 100 CALM      30.16R
CLAXTON        FAIR      63  63 100 CALM      30.13S
SYLVANIA       SUNNY     66  66  99 CALM      30.15S
STATESBORO     PTCLDY    65  32  29 CALM      30.14S
SAVANNAH       PTCLDY    68  67  96 N3        30.13R


...SOUTHERN NORTH CAROLINA...

CITY           SKY/WX    TMP DP  RH WIND       PRES   REMARKS
CHARLOTTE      PTCLDY    67  61  81 CALM      30.19R
MONROE         CLEAR     64  62  93 CALM      30.18R
WADESBORO      SUNNY     61  59  93 CALM      30.18S
ROCKINGHAM     SUNNY     66  65  94 CALM      30.18S
RUTHERFORDTON  FOG       64  64 100 CALM      30.19S VSB 1/2
ASHEVILLE      FOG       60  59  96 CALM      30.23S VSB 1

$$



USA.gov is the U.S. government's official web portal to all federal, state and local government web resources and services.